Flag for Austria Weather past 2 weeks in Grieskirchen, Upper Austria, Austria

Now
73 °F

Scattered clouds.


Feels Like: 77 °F
Forecast: 47 / 68 °F
Wind: 3 mph from Southeast

Location: Linz / Hoersching-Flughafen

Current Time: Aug 22, 2014 at 5:50:17 PM

Latest Report: Aug 22, 2014 at 4:50 PM


Visibility: N/A

Pressure: 29.95 "Hg

Humidity: 47%

Dew point: 52 °F

Location of GrieskirchenLocation

Historic Weather in Grieskirchen — Graph

°F

Grieskirchen temperature yesterday

Maximum temperature yesterday: 68 °F (at 4:50 PM)
Minimum temperature yesterday: 52 °F (at 6:50 AM)
Average temperature yesterday: 59 °F

Past Weeks' High & Low Weather Summary

 TemperatureHumidityPressure
High82 °F (Aug 9, 4:20 PM)100% (Aug 13, 1:50 AM)30.15 "Hg (Aug 13, 1:50 AM)
Low52 °F (Aug 15, 2:20 AM)39% (Aug 8, 3:50 PM)29.65 "Hg (Aug 13, 6:20 PM)
Average63 °F78%29.97 "Hg
* Reported Aug 7 4:20 PM — Aug 22 4:50 PM, Grieskirchen, Weather by CustomWeather, © 2014

Note: Actual official high and low records may vary slightly from our data, if they occured in-between our weather recording intervals... More about our weather records

Advertising

Grieskirchen weather history for previous 24 hours

 ConditionsComfort  
Time TempWeatherWind HumidityBarometerVisibility
4:50 PM
Aug 22
73 °FScattered clouds.3 mph47%29.95 "HgN/A
4:20 PM73 °FPassing clouds.5 mph47%29.95 "HgN/A
3:50 PM73 °FPassing clouds.5 mph50%29.95 "HgN/A
3:20 PM73 °FPassing clouds.2 mph50%29.95 "HgN/A
2:50 PM72 °FPassing clouds.6 mph50%29.98 "HgN/A
2:20 PM72 °FPassing clouds.5 mph53%29.98 "HgN/A
1:50 PM70 °FPassing clouds.2 mph57%29.98 "HgN/A
1:20 PM70 °FScattered clouds.2 mph64%30.01 "HgN/A
12:50 PM66 °FScattered clouds.3 mph64%30.01 "HgN/A
12:20 PM66 °FScattered clouds.5 mph68%30.01 "HgN/A
11:50 AM66 °FScattered clouds.5 mph64%30.01 "HgN/A
11:20 AM64 °FPassing clouds.7 mph73%30.01 "HgN/A
10:50 AM63 °FScattered clouds.6 mph77%30.01 "HgN/A
10:20 AM63 °FPartly sunny.6 mph77%30.04 "HgN/A
9:50 AM63 °FBroken clouds.8 mph77%30.04 "HgN/A
9:20 AM61 °FScattered clouds.9 mph77%30.01 "HgN/A
8:50 AM59 °FScattered clouds.10 mph82%30.01 "HgN/A
8:20 AM57 °FPassing clouds.3 mph88%30.04 "HgN/A
7:50 AM54 °FSunny.3 mph94%30.04 "Hg10 mi
7:20 AM54 °FScattered clouds.2 mph94%30.04 "HgN/A
6:50 AM52 °FClear.1 mph94%30.04 "Hg10 mi
6:20 AM54 °FClear.3 mph88%30.01 "Hg10 mi
5:50 AM54 °FClear.1 mph88%30.01 "Hg10 mi
5:20 AM52 °FPartly cloudy.1 mph94%30.04 "HgN/A
4:50 AM54 °FPartly cloudy.2 mph88%30.04 "HgN/A
4:20 AM54 °FPartly cloudy.3 mph88%30.04 "HgN/A
3:50 AM55 °FPartly cloudy.3 mph88%30.04 "HgN/A
3:20 AM55 °FPartly cloudy.5 mph88%30.04 "HgN/A
2:50 AM55 °FPartly cloudy.2 mph88%30.04 "HgN/A
2:20 AM55 °FPartly cloudy.2 mph88%30.04 "HgN/A
1:50 AM57 °FPartly cloudy.2 mph77%30.04 "HgN/A
1:20 AM55 °FPartly cloudy.1 mph88%30.04 "HgN/A
12:50 AM57 °FPassing clouds.3 mph82%30.04 "HgN/A
12:20 AM55 °FPartly cloudy.3 mph82%30.04 "HgN/A
11:50 PM
Aug 21
57 °FPartly cloudy.5 mph82%30.04 "HgN/A
11:20 PM57 °FPartly cloudy.3 mph82%30.04 "HgN/A
10:50 PM57 °FPassing clouds.3 mph82%30.04 "HgN/A
10:20 PM57 °FPassing clouds.2 mph82%30.04 "HgN/A
9:50 PM57 °FPartly cloudy.3 mph82%30.04 "HgN/A
9:20 PM59 °FPartly cloudy.2 mph77%30.04 "HgN/A
8:50 PM59 °FBroken clouds.2 mph82%30.04 "HgN/A
8:20 PM61 °FScattered clouds.3 mph63%30.04 "HgN/A
7:50 PM63 °FScattered clouds.2 mph59%30.04 "HgN/A
7:20 PM64 °FScattered clouds.1 mph52%30.04 "HgN/A
6:50 PM64 °FScattered clouds.2 mph52%30.04 "HgN/A
6:20 PM66 °FScattered clouds.3 mph52%30.04 "HgN/A
5:50 PM66 °FScattered clouds.5 mph52%30.04 "HgN/A
5:20 PM68 °FScattered clouds.5 mph49%30.04 "HgN/A
Weather by CustomWeather, © 2014

See weather overviewHow to use our weather pages